Regional Weather Roundup
Issued by NWS

Home | Current Version | Previous Version | Text Only | Print | Product List | Glossary On
Versions: 1 2 3 4 5 6 7 8 9 10 11 12 13 14 15 16 17 18 19 20 21 22 23 24 25 26 27 28 29 30 31 32 33 34 35 36 37 38 39 40 41 42 43 44 45 46 47 48 49 50
736
ASUS44 KJAN 201410
RWRMS

MISSISSIPPI HOURLY WEATHER ROUNDUP
NATIONAL WEATHER SERVICE JACKSON MS
900 AM CDT SAT SEP 20 2014

NOTE: "FAIR: INDICATES FEW OR NO CLOUDS BELOW 12,000 FEET WITH NO
SIGNIFICANT WEATHER AND/OR OBSTRUCTIONS TO VISIBILITY.

MSZ001>002-007>008-010>013-018>021-025>028-034>036-201500-
NORTHWEST MISSISSIPPI

CITY           SKY/WX    TMP DP  RH WIND       PRES   REMARKS
CLARKSDALE     FAIR      75  72  88 SE5       30.07R
CLEVELAND      FAIR      76  70  82 E6        30.05R
GREENWOOD      SUNNY     75  67  76 E8        30.05R
GREENVILLE     SUNNY     76  67  73 SE3       30.04R
GRENADA        FAIR      73  66  78 SE8       30.08R
OLIVE BRANCH   SUNNY     73  72  94 SE9       30.08S
OXFORD         FAIR      72  66  83 SE7       30.10R
TUNICA         SUNNY     75  68  78 SE5       30.08R
$$

MSZ003>006-009-014>017-022>024-029>033-037>039-201500-
NORTHEAST MISSISSIPPI

CITY           SKY/WX    TMP DP  RH WIND       PRES   REMARKS
COLUMBUS AFB   SUNNY     73  66  78 SE12      30.10R
CORINTH        FAIR      73  66  78 SE10      30.10S
GOLDN TRIANGLE MOSUNNY   73  64  73 SE12      30.10R
STARKVILLE     FAIR      73  66  78 E9        30.09R
TUPELO         SUNNY     74  66  76 S13       30.10R
$$

MSZ040-058-201500-
CENTRAL MISSISSIPPI

CITY           SKY/WX    TMP DP  RH WIND       PRES   REMARKS
JACKSON INTL   SUNNY     76  69  79 CALM      30.04R
JACKSON HAWKNS SUNNY     76  69  79 SE3       30.05R
MERIDIAN KEY   SUNNY     74  67  78 VRB6      30.07R
MERIDIAN NAS   MOSUNNY   74  67  78 E10       30.09R
RAYMOND        LGT RAIN  75  72  88 CALM      30.05R
VICKSBURG      SUNNY     76  71  85 SE6       30.04R
$$

MSZ059>079-201500-
SOUTH MISSISSIPPI

CITY           SKY/WX    TMP DP  RH WIND       PRES   REMARKS
BROOKHAVEN     FAIR      75  72  88 CALM      30.06R
COLUMBIA       FAIR      75  70  83 E10       30.03R
HATTIESBURG    SUNNY     75  69  81 E5        30.05R
MCCOMB         SUNNY     75  68  78 VRB5      30.04R
NATCHEZ        SUNNY     75  70  83 SE3       30.03R
PINE BELT      SUNNY     73  66  78 E7        30.06R
$$

MSZ080>082-201500-
COASTAL MISSISSIPPI

CITY           SKY/WX    TMP DP  RH WIND       PRES   REMARKS
BAY ST LOUIS   SUNNY     77  82 100 NE9       30.00R
BILOXI         SUNNY     77  68  72 NE10      30.00R
PASCAGOULA     SUNNY     76  69  79 E9        30.00S
GULFPORT       SUNNY     77  68  73 NE10      30.00R
$$



USA.gov is the U.S. government's official web portal to all federal, state and local government web resources and services.